Theta_e
323 321 320 323 319 322 323 320 326 326 330 332 329 332 335 333 335 334 331 334 328 332 327 321 315 312 311 313 314 313 312 311 311 311 310 310 310 310 311 311 312 313 314 315 317 318 319 318 320
323 313 326 323 320 327 319 322 325 324 328 333 331 329 332 334 331 333 332 335 331 327 325 321 316 313 312 313 314 313 312 312 312 311 312 312 312 312 312 313 314 318 321 320 320 321 324 326 326
316 321 322 327 324 323 320 325 327 330 330 334 333 330 332 334 334 333 331 334 335 327 327 320 317 315 313 313 314 314 313 312 312 312 313 313 313 314 314 315 316 322 328 330 331 331 331 332 333
320 321 319 325 329 326 321 327 328 327 327 332 333 331 328 333 334 332 331 334 336 328 329 321 318 316 314 313 315 314 313 313 313 313 314 314 315 315 315 316 318 324 331 333 334 335 335 335 336
324 320 322 325 326 326 326 327 326 327 329 333 332 332 330 331 335 332 333 335 335 334 328 321 319 316 314 313 315 315 314 313 313 314 315 315 316 317 317 318 320 324 333 335 336 337 338 338 337
321 319 324 324 324 325 324 323 325 327 328 334 332 329 331 329 335 336 335 335 336 334 329 321 320 317 316 314 314 315 315 314 314 315 316 317 318 318 319 319 323 332 334 335 337 336 337 335 332
321 320 325 325 325 325 324 323 325 326 327 331 330 330 328 329 334 336 336 337 337 335 329 323 322 316 316 314 314 315 315 315 315 315 316 317 318 319 320 321 321 329 335 333 336 336 334 331 329
322 323 328 324 325 325 324 323 325 327 328 327 327 330 329 328 334 337 337 338 337 335 328 324 322 320 316 315 315 314 315 316 315 315 316 317 318 319 321 321 322 324 328 330 333 337 333 331 329
321 323 324 326 324 324 322 325 322 323 327 326 327 328 328 329 332 337 340 339 338 336 333 327 324 322 319 320 317 314 314 316 316 316 316 317 318 319 321 322 323 324 325 328 332 334 332 330 330
328 324 322 323 324 323 325 326 325 324 324 326 327 327 327 329 329 330 333 336 337 338 336 333 328 324 323 321 320 320 317 318 317 317 318 318 319 319 320 322 323 323 325 326 330 333 333 331 330
329 332 327 324 324 325 326 328 326 327 327 324 327 325 325 326 326 325 328 334 336 335 337 336 334 330 325 323 324 322 323 322 321 320 320 321 321 320 322 323 324 324 325 327 331 333 334 333 331
331 330 330 327 326 331 331 329 330 327 328 325 326 325 325 325 323 322 325 328 332 334 335 335 336 336 332 326 326 326 325 327 327 325 324 324 325 324 323 324 324 324 325 328 333 335 335 336 333
327 327 329 331 331 331 330 331 330 329 327 326 326 326 325 324 323 323 324 325 327 328 328 329 331 334 336 335 331 329 327 327 329 328 327 327 327 326 323 324 324 324 325 327 334 335 336 336 335
317 322 325 324 323 324 325 326 325 325 325 324 323 324 322 321 321 321 322 323 324 325 325 326 325 326 330 335 336 334 331 330 330 330 329 329 330 328 322 323 324 325 325 326 334 337 337 335 335
313 315 314 315 316 318 322 323 325 324 323 323 323 323 321 320 320 319 323 323 325 326 326 325 326 325 327 331 334 336 334 333 332 332 332 331 331 330 324 323 323 324 323 326 336 336 335 335 335
315 314 317 318 315 317 321 324 324 323 323 323 323 323 322 320 320 322 323 323 323 324 324 324 324 324 325 329 335 337 336 335 334 335 335 334 332 331 328 324 323 323 324 330 337 334 334 335 333
313 318 317 318 318 319 319 322 322 322 322 322 321 320 320 319 319 320 322 323 324 324 324 324 324 324 325 329 335 337 337 337 337 337 336 336 335 333 331 329 325 325 327 337 335 334 335 333 331
314 316 316 318 319 318 319 320 320 321 321 320 319 319 319 320 320 320 322 323 324 323 323 323 324 324 325 332 337 338 338 338 338 338 337 337 336 335 334 333 331 329 333 336 335 334 334 333 332
313 315 317 318 317 321 320 320 320 319 319 320 321 321 321 321 320 320 322 322 323 322 322 323 323 323 324 335 338 338 338 338 339 339 339 339 337 335 334 335 334 334 337 334 334 334 333 332 331
311 312 312 313 314 315 315 314 313 315 316 318 320 320 319 319 317 318 320 321 320 320 322 324 325 323 326 329 335 338 338 339 340 340 340 339 338 337 338 337 337 337 336 334 334 333 332 331 330
309 311 312 314 313 313 313 315 315 315 313 313 314 314 316 318 317 318 317 316 319 319 321 323 327 326 329 335 336 338 338 339 339 339 340 340 339 340 339 338 338 336 334 334 332 331 330 327 327
308 310 312 313 313 314 313 316 314 314 314 313 313 313 313 313 314 315 315 315 317 319 321 325 332 334 336 339 339 339 339 335 337 340 340 340 340 338 339 338 335 332 334 333 331 331 330 328 326
307 309 310 311 311 312 312 311 312 311 312 312 312 313 312 310 312 312 312 313 316 318 324 332 338 339 340 341 341 339 337 335 336 335 337 334 333 333 338 335 333 334 333 332 331 330 330 329 327
307 307 307 309 310 312 311 311 312 311 311 311 311 311 311 311 310 311 311 314 319 328 334 339 341 342 341 341 339 339 336 334 333 333 333 333 333 334 334 334 335 334 332 331 330 329 328 328 328
304 303 307 310 311 311 311 311 312 311 311 312 312 311 310 310 310 310 312 323 328 333 338 341 341 340 340 340 338 338 336 336 335 333 333 334 334 334 334 334 333 332 331 330 329 329 328 328 328
302 301 307 312 313 309 312 314 313 312 312 312 312 311 310 310 308 309 310 321 329 335 338 340 339 338 339 339 338 338 337 335 334 334 334 334 334 333 333 332 331 331 330 329 329 329 328 328 328
306 302 302 303 306 306 310 311 311 312 312 312 312 311 310 309 310 310 313 327 332 335 337 339 338 337 338 337 336 335 334 334 333 333 333 332 332 332 331 331 331 330 329 328 328 328 328 328 328
305 304 305 301 307 310 310 311 313 312 312 311 312 311 311 311 312 312 327 332 334 335 337 338 338 336 334 333 333 333 333 333 332 332 332 331 331 330 329 329 328 328 328 328 328 327 327 327 328
307 307 308 303 304 310 311 311 309 311 312 313 311 310 310 321 328 330 333 333 334 334 334 335 335 333 332 332 332 332 332 332 332 331 331 331 330 329 329 329 328 328 328 328 328 328 328 328 328
306 308 310 310 310 306 307 308 309 310 309 309 309 312 314 331 331 333 333 334 334 333 333 332 333 332 332 332 332 332 332 332 331 331 331 331 329 329 329 329 329 329 329 329 329 328 328 327 327
Wind_Speed
5 4 3 3 3 4 3 7 3 5 3 2 5 6 11 5 7 5 2 25 14 29 30 33 31 29 28 26 24 24 23 22 21 20 19 18 17 15 14 13 13 12 11 9 6 3 2 1 0
7 8 3 2 3 3 5 5 5 8 5 7 2 3 3 5 4 2 5 25 17 30 32 36 33 31 28 27 26 25 23 22 21 20 19 18 17 16 14 12 11 11 11 10 8 5 3 1 0
11 3 3 4 4 5 6 5 7 5 8 5 3 3 6 4 1 4 9 26 19 30 32 36 35 32 30 29 28 26 25 23 21 20 19 18 16 15 14 13 12 11 10 8 7 5 3 2 1
7 3 4 2 8 6 6 3 4 8 8 4 3 2 3 4 8 13 12 28 22 30 33 34 34 34 33 31 30 28 27 25 23 21 19 18 16 14 12 11 10 9 9 8 6 4 4 4 3
3 2 2 2 6 6 5 6 5 7 3 3 3 3 2 2 10 15 15 30 25 30 34 35 35 35 34 32 32 30 29 27 25 23 21 20 18 16 14 12 11 9 9 9 7 6 6 6 6
3 2 1 7 7 5 6 8 3 4 4 4 2 4 3 2 8 13 19 29 25 29 34 36 35 36 35 34 33 32 31 30 28 26 24 21 19 17 14 11 11 10 11 10 8 7 7 9 8
5 4 5 3 3 4 6 6 5 4 5 2 4 5 4 3 8 11 17 26 24 26 32 35 35 38 36 36 36 35 33 32 30 28 26 24 21 19 17 14 11 11 11 9 9 9 8 8 9
4 4 4 5 4 6 3 4 1 1 3 5 3 3 3 6 12 13 18 24 21 23 29 34 36 38 39 40 39 38 36 34 32 31 29 27 24 22 19 17 14 12 12 11 10 9 8 8 8
4 3 5 7 7 4 1 5 7 5 3 5 2 3 4 7 7 9 13 18 20 22 27 32 36 38 41 41 40 40 38 37 35 34 32 30 28 25 23 21 17 15 13 12 11 10 9 9 10
5 5 10 6 12 5 5 2 2 6 6 4 3 2 15 7 3 7 9 15 22 26 31 32 34 39 41 43 42 39 40 39 39 39 37 34 33 28 26 23 20 17 15 13 13 11 10 10 11
7 10 13 8 9 5 9 10 6 2 7 6 1 7 5 1 2 9 14 23 31 36 32 35 38 39 43 44 44 43 43 43 42 42 39 37 35 31 29 26 23 20 17 17 16 15 14 14 13
6 14 16 6 6 4 14 8 4 8 12 7 10 8 6 9 8 9 15 27 33 32 34 35 39 41 42 43 45 44 44 44 44 44 42 39 37 34 32 29 26 23 21 19 17 16 16 17 15
13 5 9 15 12 12 10 14 15 16 11 11 9 10 12 10 9 15 19 19 22 24 32 38 39 40 44 45 45 45 45 46 45 43 44 42 40 39 35 33 29 25 23 20 19 18 18 18 17
3 12 17 8 5 6 7 15 5 9 11 14 14 15 11 9 9 13 15 18 20 23 25 25 30 35 39 44 45 47 46 44 43 42 43 42 41 40 37 34 31 27 25 22 21 19 19 20 19
2 5 3 6 4 7 2 23 21 12 13 16 16 17 13 11 12 11 22 21 25 26 28 28 26 25 34 40 42 43 43 42 41 40 38 38 40 39 35 34 33 29 25 23 21 20 20 20 20
6 3 13 13 8 6 9 28 18 8 13 18 19 17 14 12 9 19 21 21 27 32 37 39 34 29 30 37 39 40 42 41 39 36 34 33 33 35 34 34 35 27 26 23 22 21 21 20 20
4 15 14 12 8 11 15 25 7 7 8 13 11 11 9 9 11 16 23 28 36 37 38 37 33 31 31 32 36 34 34 33 33 31 30 28 29 31 32 34 30 24 23 22 20 21 21 21 20
10 12 8 7 7 10 12 27 15 6 7 9 10 12 12 13 15 15 25 33 35 40 37 34 32 28 25 26 29 25 25 26 26 27 25 24 26 27 28 24 24 22 21 19 18 19 20 21 19
3 11 2 3 5 8 19 22 16 9 11 17 18 20 21 21 15 17 27 32 38 33 33 29 26 20 21 23 23 21 24 23 21 20 21 22 23 24 22 20 19 21 21 20 18 20 22 22 18
2 3 1 4 4 2 6 11 9 6 10 11 16 17 16 15 8 11 23 30 30 31 30 27 21 19 22 26 25 13 19 20 19 17 18 20 22 22 23 24 22 23 22 20 18 20 16 13 14
5 5 3 2 7 6 5 14 10 7 11 13 16 13 11 13 10 13 13 19 29 30 32 25 22 20 22 24 19 14 14 11 16 19 20 20 21 21 22 21 20 21 19 18 17 17 16 9 8
5 7 5 6 5 6 2 12 13 9 15 13 18 18 17 9 13 15 9 12 25 33 27 20 17 17 20 19 21 23 20 14 14 21 20 20 19 18 18 18 17 15 16 15 13 12 13 11 8
7 2 4 2 3 3 2 4 6 5 11 17 19 21 19 13 16 13 12 14 27 24 20 15 15 17 20 21 23 26 24 17 21 20 20 18 14 15 18 16 15 15 14 11 11 11 12 14 11
4 6 2 2 3 4 6 6 18 9 15 13 14 15 11 10 10 11 10 15 17 10 10 14 18 19 23 24 25 25 26 22 22 19 17 15 13 13 14 14 13 12 11 11 11 10 10 12 10
2 5 2 2 3 11 13 9 21 5 3 3 6 7 8 9 9 9 9 7 7 10 14 18 21 23 23 23 24 22 22 22 23 22 19 17 15 14 14 13 12 11 10 9 9 8 9 10 11
6 7 5 6 4 4 8 11 9 14 24 22 13 8 7 9 9 10 10 8 7 14 19 20 23 25 23 23 21 19 19 19 18 17 17 15 13 11 11 11 9 9 8 7 7 7 8 10 11
4 4 5 3 2 1 4 7 11 14 19 11 5 6 9 10 10 11 8 7 12 16 20 25 26 24 22 21 21 20 18 18 18 16 14 11 9 8 10 9 9 8 6 6 6 7 8 9 10
4 5 3 2 4 4 5 6 8 8 8 14 8 8 10 11 11 10 5 9 12 19 24 26 28 26 24 23 22 22 21 19 18 15 12 9 9 10 11 11 9 8 7 5 4 5 6 8 9
3 2 2 4 5 4 2 5 7 14 2 5 6 8 10 10 8 3 6 10 15 20 24 26 27 26 26 25 23 22 19 17 15 12 10 10 11 13 12 10 9 8 6 5 4 5 7 8 9
1 3 1 4 7 7 3 7 2 6 5 5 8 13 13 5 4 3 6 10 13 17 20 24 27 29 27 24 22 21 19 16 13 11 10 12 14 12 10 9 9 7 6 4 5 6 7 6 7
Wind_Direction
211 171 142 65 66 69 254 258 265 280 242 288 123 154 178 165 168 211 268 175 177 185 181 184 186 186 184 183 183 183 181 177 174 171 166 163 163 163 166 167 166 168 172 173 167 173 169 138 79
167 138 74 88 106 135 254 247 240 246 264 313 265 73 122 202 184 243 137 177 176 184 184 186 187 189 188 187 188 187 186 181 178 176 171 167 166 166 168 169 170 169 168 167 168 167 170 164 26
150 140 101 136 178 198 223 210 220 245 233 200 263 201 166 181 31 221 151 181 181 186 191 188 189 192 193 192 192 192 190 188 185 183 178 174 172 171 171 172 174 172 171 173 173 169 180 195 241
150 31 39 141 224 249 224 252 271 325 332 75 197 203 281 224 166 167 168 181 188 190 194 193 192 195 196 195 196 196 197 193 192 190 186 181 179 177 175 176 176 177 178 185 189 203 214 218 236
101 71 147 239 254 253 246 264 274 300 274 250 254 208 237 240 148 165 181 187 194 195 196 197 197 200 201 201 201 201 202 199 197 196 195 190 186 182 182 183 182 182 190 197 200 211 239 247 247
68 91 107 225 237 264 257 243 248 243 243 230 219 134 259 248 169 175 192 193 199 200 198 201 203 205 206 207 209 208 207 205 203 202 202 201 195 188 189 188 192 192 197 202 211 216 236 257 261
148 120 216 233 250 263 239 220 215 254 334 352 174 141 257 285 197 189 193 196 202 206 204 205 209 211 212 212 214 215 213 212 209 207 208 208 203 198 195 196 196 197 205 207 212 221 230 256 269
147 133 199 211 223 257 257 299 166 55 275 321 168 201 197 240 178 177 189 200 208 215 214 214 214 215 217 217 217 220 220 218 216 213 212 210 209 207 205 203 201 202 208 212 214 223 232 251 264
132 140 224 200 184 240 324 28 319 313 312 338 308 146 280 51 170 169 191 208 219 225 224 221 222 222 222 224 223 222 224 225 223 220 218 215 213 209 210 211 208 209 214 217 218 223 226 245 263
169 185 222 178 222 238 274 198 335 335 341 235 274 297 21 13 199 201 215 229 228 231 232 231 232 230 226 228 227 226 226 226 225 224 220 218 217 213 215 215 215 216 221 223 224 229 233 240 253
195 221 230 218 209 237 266 290 190 264 297 238 302 307 294 224 236 234 241 233 231 234 238 238 237 235 232 230 230 227 229 228 228 227 224 221 220 216 218 219 218 220 224 228 227 232 235 239 249
217 222 228 215 205 226 254 274 226 186 247 265 287 284 285 273 224 211 245 247 241 242 250 252 245 239 238 235 235 234 229 230 229 230 227 224 222 218 219 221 223 225 229 233 233 237 240 239 245
236 220 232 240 252 253 271 261 267 267 264 269 269 262 265 260 270 272 265 260 246 257 263 257 252 248 245 239 236 236 234 232 231 231 231 226 225 223 222 225 226 229 236 240 240 243 244 241 241
175 221 250 255 229 252 266 270 243 297 285 289 288 278 260 263 249 273 269 251 254 267 273 271 250 250 245 243 238 238 237 233 235 235 235 230 228 227 224 227 230 231 240 245 244 248 248 243 237
246 294 319 226 178 246 195 277 257 242 269 278 270 264 267 248 254 237 255 268 280 288 296 284 275 263 246 244 242 236 235 235 235 236 237 233 230 230 229 230 233 232 239 247 248 245 244 243 239
185 162 245 240 161 245 159 258 254 243 240 254 261 275 273 266 252 266 268 263 282 294 294 298 291 283 259 247 239 235 235 234 236 235 235 233 231 234 230 232 235 233 238 242 239 241 241 240 239
236 234 220 246 210 204 193 257 241 221 229 253 261 267 269 272 276 264 283 296 300 298 297 296 294 285 268 243 232 228 232 233 234 236 235 234 235 231 228 232 234 231 235 236 237 238 238 239 246
207 221 230 209 204 201 237 256 255 260 260 253 262 275 273 272 270 280 291 297 294 297 297 291 286 278 255 231 225 223 231 232 234 233 237 236 231 227 224 225 223 219 222 228 229 233 236 243 250
60 213 138 148 261 186 225 256 257 251 262 268 271 272 275 278 284 278 283 284 288 292 300 292 284 267 225 207 205 209 211 215 222 228 233 231 224 218 211 203 211 214 217 223 232 236 234 237 242
117 112 207 285 255 183 283 276 277 243 256 246 253 257 257 269 278 278 275 276 280 290 292 291 284 245 216 212 209 198 202 214 217 219 222 222 214 208 202 198 206 208 217 223 232 232 234 246 245
222 206 177 191 323 282 294 286 267 242 234 248 256 253 250 254 254 261 262 270 283 286 287 289 279 239 216 209 198 181 172 171 189 205 209 210 205 205 205 205 207 212 217 231 246 250 235 233 214
189 172 169 195 175 247 110 282 264 264 263 254 260 260 258 226 244 251 257 272 276 283 294 286 253 218 200 194 189 175 167 160 182 185 192 190 191 199 203 204 215 217 227 251 252 238 234 210 189
222 145 164 186 249 294 205 296 287 217 259 255 254 256 255 227 236 245 244 251 273 286 281 253 205 184 178 173 180 168 162 161 162 168 175 182 190 198 205 218 228 224 247 245 238 228 222 209 197
158 141 117 85 122 260 175 181 275 251 251 252 249 263 249 242 243 247 258 268 274 270 227 192 175 165 168 171 172 166 160 150 153 163 170 179 187 194 205 215 220 233 238 229 220 213 209 205 205
91 78 96 124 192 233 161 179 240 306 184 239 246 289 277 265 272 268 262 246 236 203 180 172 167 156 163 167 167 164 160 157 164 165 166 165 168 175 186 203 214 221 217 210 206 210 206 206 211
173 166 167 173 201 216 151 222 241 235 254 261 276 291 309 297 264 257 249 226 194 173 164 158 157 149 155 157 157 157 156 162 164 166 169 169 174 180 200 212 207 198 200 206 212 218 221 224 224
183 161 195 44 277 111 218 287 293 276 282 269 302 338 295 282 282 271 243 183 157 156 155 154 151 150 154 154 154 153 157 159 155 153 157 166 180 187 182 183 176 181 201 202 212 221 220 218 222
166 172 119 356 219 240 260 259 236 318 264 275 353 324 308 307 296 280 185 147 144 144 152 155 156 152 152 150 149 149 150 150 150 157 164 172 173 170 166 163 170 167 165 172 192 204 204 213 220
36 288 166 164 177 212 295 264 220 224 172 16 299 296 298 303 316 44 133 139 137 139 142 146 151 152 152 150 147 145 147 150 155 161 166 171 163 161 162 162 161 165 162 176 195 222 225 226 229
92 267 268 178 241 248 138 270 357 107 85 33 354 337 335 340 356 94 140 140 137 136 136 142 150 152 153 150 148 147 148 155 161 163 168 164 157 159 163 163 165 172 160 180 217 233 217 208 197